Location: Wildlife_Club
(35.6000°N, 81.4330°W)
Time: 09:21:23
(UTC-04:00)

Vanguard 2 Rocket - Pass Details

Date: 19 June 2019
Orbit: 554 x 3326 km, 32.9° (Epoch: 22 July)

Event Time Altitude Azimuth Distance (km) Brightness Sun altitude
Rises 21:20:50 0° 204° (SSW) 3,550 9.8 -7.1°
Reaches altitude 10° 21:23:28 10° 190° (S) 2,898 9.2 -7.5°
Maximum altitude 21:29:16 25° 136° (SE) 2,570 8.6 -8.5°
Drops below altitude 10° 21:38:00 10° 88° (E) 4,530 10.0 -9.9°
Sets 21:43:25 0° 78° (ENE) 6,058 10.7 -10.7°
